Satellite: MET-3/5 Catalog number: 21655 Epoch time: 07094.93774752 Element set: 0296 Inclination: 082.5496 deg RA of node: 054.6838 deg Eccentricity: 0.0014434 Arg of perigee: 034.6395 deg Mean anomaly: 325.5664 deg Mean motion: 13.17010508 rev/day Decay rate: 5.1e-07 rev/day^2 Epoch rev: 75176 Checksum: 322
Satellite: MET-2/21 Catalog number: 22782 Epoch time: 07093.52302202 Element set: 0790 Inclination: 082.5434 deg RA of node: 101.1519 deg Eccentricity: 0.0024068 Arg of perigee: 085.9792 deg Mean anomaly: 274.4112 deg Mean motion: 13.83616831 rev/day Decay rate: 3.3e-07 rev/day^2 Epoch rev: 68619 Checksum: 289
Satellite: OKEAN-4 Catalog number: 23317 Epoch time: 07094.81285210 Element set: 0229 Inclination: 082.5429 deg RA of node: 004.9885 deg Eccentricity: 0.0023306 Arg of perigee: 130.9707 deg Mean anomaly: 229.3501 deg Mean motion: 14.82486041 rev/day Decay rate: 2.85e-06 rev/day^2 Epoch rev: 67318 Checksum: 295
Satellite: NOAA-14 Catalog number: 23455 Epoch time: 07095.81832815 Element set: 588 Inclination: 098.9958 deg RA of node: 161.5978 deg Eccentricity: 0.0008579 Arg of perigee: 306.8274 deg Mean anomaly: 053.2591 deg Mean motion: 14.13709109 rev/day Decay rate: 4.8e-07 rev/day^2 Epoch rev: 63250 Checksum: 345
Satellite: SICH-1 Catalog number: 23657 Epoch time: 07094.80316366 Element set: 0032 Inclination: 082.5287 deg RA of node: 145.9329 deg Eccentricity: 0.0025446 Arg of perigee: 122.0250 deg Mean anomaly: 238.3441 deg Mean motion: 14.81468442 rev/day Decay rate: 3.56e-06 rev/day^2 Epoch rev: 62516 Checksum: 291
Satellite: NOAA-15 Catalog number: 25338 Epoch time: 07095.05905090 Element set: 947 Inclination: 098.5297 deg RA of node: 093.8071 deg Eccentricity: 0.0009796 Arg of perigee: 240.3487 deg Mean anomaly: 119.6720 deg Mean motion: 14.24633376 rev/day Decay rate: -5.2e-07 rev/day^2 Epoch rev: 46227 Checksum: 328
Satellite: RESURS Catalog number: 25394 Epoch time: 07094.78871549 Element set: 610 Inclination: 098.4500 deg RA of node: 152.1983 deg Eccentricity: 0.0002424 Arg of perigee: 052.7689 deg Mean anomaly: 307.3711 deg Mean motion: 14.24131506 rev/day Decay rate: -8.0e-08 rev/day^2 Epoch rev: 45390 Checksum: 293
Satellite: FENGYUN1 Catalog number: 25730 Epoch time: 07095.48419287 Element set: 49 Inclination: 098.6867 deg RA of node: 082.1167 deg Eccentricity: 0.0022040 Arg of perigee: 338.0527 deg Mean anomaly: 021.9700 deg Mean motion: 14.07451675 rev/day Decay rate: -3.7e-07 rev/day^2 Epoch rev: 40723 Checksum: 296
Satellite: OKEAN-0 Catalog number: 25860 Epoch time: 07094.89003981 Element set: 0019 Inclination: 097.7317 deg RA of node: 100.5637 deg Eccentricity: 0.0000507 Arg of perigee: 066.0736 deg Mean anomaly: 294.0518 deg Mean motion: 14.73442019 rev/day Decay rate: 1.05e-06 rev/day^2 Epoch rev: 41470 Checksum: 281
Satellite: NOAA-16 Catalog number: 26536 Epoch time: 07095.01269642 Element set: 361 Inclination: 099.1111 deg RA of node: 070.7024 deg Eccentricity: 0.0010857 Arg of perigee: 023.3186 deg Mean anomaly: 336.8474 deg Mean motion: 14.12414945 rev/day Decay rate: -1.67e-06 rev/day^2 Epoch rev: 33677 Checksum: 297
Satellite: NOAA-17 Catalog number: 27453 Epoch time: 07095.50748042 Element set: 370 Inclination: 098.5844 deg RA of node: 166.5377 deg Eccentricity: 0.0010931 Arg of perigee: 307.5673 deg Mean anomaly: 052.4515 deg Mean motion: 14.23867667 rev/day Decay rate: 2.08e-06 rev/day^2 Epoch rev: 24837 Checksum: 324
Satellite: NOAA-18 Catalog number: 28654 Epoch time: 07095.50160900 Element set: 907 Inclination: 098.8239 deg RA of node: 038.0247 deg Eccentricity: 0.0015075 Arg of perigee: 112.6192 deg Mean anomaly: 247.6581 deg Mean motion: 14.11050078 rev/day Decay rate: -1.53e-06 rev/day^2 Epoch rev: 9660 Checksum: 296
/EX SB KEPS @ AMSAT $ORB07095.M Orbital Elements 07095.MISC
HR AMSAT ORBITAL ELEMENTS FOR MANNED AND MISCELLANEOUS SATELLITES FROM WA5QGD FORT WORTH,TX April 5, 2007 Send SUBSCRIBE KEPS/UNSUBSCRIBE KEPS to [email protected] only BID: ORB07095.M TO ALL RADIO AMATEURS BT
Satellite: HUBBLE Catalog number: 20580 Epoch time: 07094.96316038 Element set: 0853 Inclination: 028.4680 deg RA of node: 307.6048 deg Eccentricity: 0.0003464 Arg of perigee: 040.6680 deg Mean anomaly: 319.4168 deg Mean motion: 15.00217914 rev/day Decay rate: 5.53e-06 rev/day^2 Epoch rev: 72895 Checksum: 299
Satellite: UARS Catalog number: 21701 Epoch time: 07094.91359636 Element set: 0056 Inclination: 056.9736 deg RA of node: 271.7556 deg Eccentricity: 0.0098591 Arg of perigee: 053.3697 deg Mean anomaly: 307.6374 deg Mean motion: 15.47444966 rev/day Decay rate: 9.071e-05 rev/day^2 Epoch rev: 85440 Checksum: 344
Satellite: PO-34 Catalog number: 25520 Epoch time: 07094.75499425 Element set: 709 Inclination: 028.4596 deg RA of node: 240.2151 deg Eccentricity: 0.0005872 Arg of perigee: 176.0149 deg Mean anomaly: 184.0489 deg Mean motion: 15.16963463 rev/day Decay rate: 6.32e-06 rev/day^2 Epoch rev: 46636 Checksum: 325
Satellite: ISS Catalog number: 25544 Epoch time: 07096.05241544 Element set: 968 Inclination: 051.6324 deg RA of node: 116.6836 deg Eccentricity: 0.0015959 Arg of perigee: 034.7733 deg Mean anomaly: 325.4839 deg Mean motion: 15.78512434 rev/day Decay rate: 1.8679e-04 rev/day^2 Epoch rev: 47938 Checksum: 341
Satellite: OO-38 Catalog number: 26063 Epoch time: 07094.86062374 Element set: 879 Inclination: 100.2256 deg RA of node: 083.9420 deg Eccentricity: 0.0037079 Arg of perigee: 006.6587 deg Mean anomaly: 353.5078 deg Mean motion: 14.35800661 rev/day Decay rate: -1.8e-07 rev/day^2 Epoch rev: 37652 Checksum: 317
Satellite: NO-45 Catalog number: 26932 Epoch time: 07094.97246262 Element set: 0567 Inclination: 067.0582 deg RA of node: 335.8462 deg Eccentricity: 0.0006006 Arg of perigee: 291.3711 deg Mean anomaly: 068.6749 deg Mean motion: 14.29553426 rev/day Decay rate: -3.5e-07 rev/day^2 Epoch rev: 28767 Checksum: 333
Satellite: UWE-1 Catalog number: 28892 Epoch time: 07094.23820810 Element set: 0717 Inclination: 098.1387 deg RA of node: 352.3215 deg Eccentricity: 0.0017366 Arg of perigee: 346.8936 deg Mean anomaly: 013.1827 deg Mean motion: 14.59483929 rev/day Decay rate: 2.55e-06 rev/day^2 Epoch rev: 07642 Checksum: 325
Satellite: CO-58 Catalog number: 28895 Epoch time: 07094.49354578 Element set: 696 Inclination: 098.1414 deg RA of node: 352.7565 deg Eccentricity: 0.0017832 Arg of perigee: 345.9801 deg Mean anomaly: 014.0930 deg Mean motion: 14.59534065 rev/day Decay rate: 3.79e-06 rev/day^2 Epoch rev: 7634 Checksum: 350
Satellite: NCUBE2 Catalog number: 28897 Epoch time: 07094.64505700 Element set: 0219 Inclination: 098.1390 deg RA of node: 352.8675 deg Eccentricity: 0.0017552 Arg of perigee: 347.3657 deg Mean anomaly: 012.7108 deg Mean motion: 14.59693964 rev/day Decay rate: 1.89e-06 rev/day^2 Epoch rev: 06864 Checksum: 342
Satellite: NMARS Catalog number: 29662 Epoch time: 07096.07612904 Element set: 184 Inclination: 051.6325 deg RA of node: 106.9368 deg Eccentricity: 0.0012014 Arg of perigee: 058.9949 deg Mean anomaly: 301.2778 deg Mean motion: 16.01448979 rev/day Decay rate: 2.12079e-03 rev/day^2 Epoch rev: 1676 Checksum: 320
Satellite: FCAL Catalog number: 29667 Epoch time: 07094.96264411 Element set: 0117 Inclination: 051.6325 deg RA of node: 117.5564 deg Eccentricity: 0.0017041 Arg of perigee: 058.6298 deg Mean anomaly: 301.6365 deg Mean motion: 15.85490500 rev/day Decay rate: 2.4792e-04 rev/day^2 Epoch rev: 01637 Checksum: 303
Satellite: FALCON Catalog number: 30776 Epoch time: 07094.90287969 Element set: 0041 Inclination: 035.4348 deg RA of node: 296.9070 deg Eccentricity: 0.0000908 Arg of perigee: 250.9452 deg Mean anomaly: 109.1166 deg Mean motion: 15.02671637 rev/day Decay rate: 4.65e-06 rev/day^2 Epoch rev: 00402 Checksum: 294
/EX